カタログに戻る

THORAD AGENA D DEB

運用中PO
NORAD 5203·DEBRIS·🇺🇸 United States

打ち上げ Apr 8, 1970 から Vandenberg Space Force Base

Loading…

次のパス (今後24時間)

TLE

最新Source: Space-Track

元期: Sep 14, 2026, 01:07 UTC

1 05203U 70025KE  26257.04703434  .00000356  00000-0  90353-3 0  9998
2 05203  99.8258 284.2197 0219719 231.5558 154.5300 13.17710210694712

AllMySatでTHORAD AGENA D DEBをリアルタイム追跡

Download on the App Store